Location: Cz?stochówka
(50.8142°N, 19.0915°E)
Time: 14:08:27
(UTC+00:00)

Cosmos 2084 - Visible Passes

Search period start: 11 April 2026 00:00
Search period end: 21 April 2026 00:00
Orbit: 541 x 557 km, 62.8° (Epoch: 11 April)

Date Brightness Start Highest point End Pass type
(mag) Time Alt. Az. Time Alt. Az. Time Alt. Az.
11 Apr 5.2 01:43:58 16° SSE 01:45:55 23° ESE 01:49:11 10° ENE visible
11 Apr 3.5 03:20:04 10° WSW 03:24:11 62° NW 03:28:19 10° NE visible
12 Apr 4.9 01:39:00 22° SSE 01:40:32 28° ESE 01:44:07 10° ENE visible
12 Apr 3.8 03:14:53 10° WSW 03:18:56 51° NW 03:23:00 10° NE visible
13 Apr 4.5 01:33:57 29° SSE 01:35:10 35° SE 01:38:58 10° ENE visible
13 Apr 4.0 03:09:44 10° WSW 03:13:42 43° NW 03:17:41 10° NE visible
14 Apr 4.1 01:28:51 37° SSE 01:29:49 44° SE 01:33:46 10° NE visible
14 Apr 4.3 03:04:36 10° WSW 03:08:29 37° NNW 03:12:22 10° NE visible
15 Apr 3.7 01:23:41 46° S 01:24:28 55° SE 01:28:32 10° NE visible
15 Apr 4.5 02:59:30 10° W 03:03:16 32° NNW 03:07:02 10° NE visible
16 Apr 3.4 01:18:29 57° S 01:19:08 69° SE 01:23:16 10° NE visible
16 Apr 4.8 02:54:26 10° W 02:58:04 28° NNW 03:01:41 10° NNE visible
16 Apr 6.0 23:37:34 11° E 23:37:34 11° E 23:38:00 10° E visible
17 Apr 3.2 01:13:13 65° SW 01:13:48 85° SE 01:17:59 10° NE visible
17 Apr 5.0 02:49:23 10° W 02:52:52 25° NNW 02:56:21 10° NNE visible
17 Apr 5.9 23:32:16 13° E 23:32:16 13° E 23:33:10 10° ENE visible
18 Apr 3.3 01:07:55 63° WSW 01:08:29 78° NW 01:12:40 10° NE visible
18 Apr 5.2 02:44:20 10° WNW 02:47:41 23° NNW 02:51:00 10° NNE visible
18 Apr 5.7 23:26:55 16° E 23:26:55 16° E 23:28:10 10° ENE visible
19 Apr 3.5 01:02:33 55° W 01:03:12 64° NW 01:07:20 10° NE visible
19 Apr 5.3 02:39:18 10° WNW 02:42:29 21° NNW 02:45:41 10° NNE visible
19 Apr 5.5 23:21:31 19° E 23:21:31 19° E 23:23:03 10° ENE visible
20 Apr 3.8 00:57:10 46° WNW 00:57:54 53° NW 01:01:59 10° NE visible
20 Apr 5.5 02:34:16 10° WNW 02:37:18 19° NNW 02:40:21 10° NNE visible
20 Apr 5.3 23:16:05 22° ENE 23:16:05 22° ENE 23:17:52 10° ENE visible
